Weather History for Roswell, NM

Change the Weather History Date:

Friday, December 14, 2012

  Actual Average Record
Temperature  
Mean Temperature 52 °F 40 °F  
Max Temperature 67 °F 54 °F 73 °F (1996)
Min Temperature 36 °F 26 °F -4 °F (1923)
Degree Days  
Heating Degree Days 13 25  
Month to date heating degree days 248 329  
Since 1 July heating degree days 709 975  
Cooling Degree Days 0 0  
Month to date cooling degree days 0 0  
Year to date cooling degree days 2356 1789  
Growing Degree Days 1 (Base 50)    
Moisture  
Dew Point 31 °F    
Average Humidity 58    
Maximum Humidity 89    
Minimum Humidity 27    
Precipitation  
Precipitation 0.00 in 0.02 in 0.53 in (1945)
Month to date precipitation 0.03 0.30  
Year to date precipitation 6.13 12.57  
Sea Level Pressure  
Sea Level Pressure 29.75 in    
Wind  
Wind Speed 16 mph (SW)    
Max Wind Speed 43 mph    
Max Gust Speed 56 mph    
Visibility 9 miles    
Events      
T = Trace of Precipitation, MM = Missing Value Source: NWS Daily Summary

Daily Weather History Graph

Daily Weather History Graph

Search for Another Location

Airport:

Trip Planner

Search our weather history database for the weather conditions in past years. The results will help you decide how hot, cold, wet, or windy it might be!

Date:

Astronomy

Dec. 14, 2012 Rise Set
Actual Time 6:54 AM MST 4:52 PM MST
Civil Twilight 6:26 AM MST 5:19 PM MST
Nautical Twilight 5:55 AM MST 5:50 PM MST
Astronomical Twilight 5:25 AM MST 6:20 PM MST
Moon 8:03 AM MST (12/14) 6:44 PM MST (12/14)
Length of Visible Light 10h 52m
Length of Day
9h 58m
Waxing Crescent, 3% of the Moon is Illuminated
Dec 14
Waxing Crescent
Dec 19
First Quarter
Dec 28
Full
Jan 4
Last Quarter
Jan 11
New

Hourly Weather History & Observations

Time (MST) Temp. Windchill Dew Point Humidity Pressure Visibility Wind Dir Wind Speed Gust Speed Precip Events Conditions
12:51 AM 43.0 °F 39.5 °F 27.0 °F 53% 29.88 in 10.0 mi South 5.8 mph - N/A   Clear
1:51 AM 44.1 °F 40.1 °F 30.9 °F 60% 29.85 in 10.0 mi South 6.9 mph - N/A   Partly Cloudy
2:51 AM 43.0 °F - 30.9 °F 62% 29.82 in 10.0 mi Calm Calm - N/A   Mostly Cloudy
3:51 AM 39.0 °F - 28.9 °F 67% 29.79 in 10.0 mi Calm Calm - N/A   Scattered Clouds
4:51 AM 41.0 °F - 30.9 °F 67% 29.77 in 10.0 mi Calm Calm - N/A   Clear
5:51 AM 39.9 °F 37.8 °F 30.9 °F 70% 29.77 in 10.0 mi NW 3.5 mph - N/A   Clear
6:51 AM 39.0 °F 33.4 °F 34.0 °F 82% 29.75 in 10.0 mi South 8.1 mph - N/A   Clear
7:44 AM 41.0 °F 35.2 °F 37.4 °F 87% 29.80 in 5.0 mi South 9.2 mph - N/A   Mostly Cloudy
7:51 AM 42.1 °F 36.6 °F 39.0 °F 89% 29.74 in 5.0 mi SSE 9.2 mph - N/A   Mostly Cloudy
8:51 AM 46.9 °F - 43.0 °F 86% 29.73 in 7.0 mi SSE 19.6 mph 27.6 mph N/A   Overcast
9:23 AM 48.2 °F - 44.6 °F 87% 29.78 in 10.0 mi SSE 17.3 mph 25.3 mph N/A   Scattered Clouds
9:51 AM 52.0 °F - 43.0 °F 71% 29.70 in 10.0 mi SSE 15.0 mph 21.9 mph N/A   Clear
10:51 AM 57.9 °F - 42.1 °F 56% 29.64 in 10.0 mi South 23.0 mph 29.9 mph N/A   Clear
11:51 AM 64.9 °F - 39.9 °F 40% 29.56 in 10.0 mi South 24.2 mph 31.1 mph N/A   Mostly Cloudy
12:10 PM 60.8 °F - 39.2 °F 45% 29.67 in 2.5 mi West 39.1 mph 49.5 mph N/A   Widespread Dust
12:22 PM 60.8 °F - 35.6 °F 39% 29.69 in 2.0 mi West 39.1 mph 56.4 mph N/A   Widespread Dust
12:30 PM 59.0 °F - 33.8 °F 39% 29.70 in 2.0 mi West 35.7 mph 51.8 mph N/A   Widespread Dust
12:39 PM 59.0 °F - 33.8 °F 39% 29.73 in 3.0 mi West 34.5 mph 49.5 mph N/A   Widespread Dust
12:51 PM 57.0 °F - 33.1 °F 40% 29.66 in 10.0 mi West 33.4 mph 48.3 mph N/A   Mostly Cloudy
1:51 PM 52.0 °F - 30.9 °F 45% 29.69 in 10.0 mi WSW 28.8 mph 35.7 mph N/A   Overcast
2:51 PM 55.9 °F - 25.0 °F 30% 29.67 in 10.0 mi WSW 29.9 mph 42.6 mph N/A   Clear
3:51 PM 55.0 °F - 23.0 °F 29% 29.71 in 10.0 mi WSW 32.2 mph 42.6 mph N/A   Clear
4:51 PM 52.0 °F - 23.0 °F 32% 29.74 in 10.0 mi WSW 28.8 mph 33.4 mph N/A   Clear
5:51 PM 50.0 °F - 23.0 °F 35% 29.78 in 10.0 mi WSW 19.6 mph - N/A   Clear
6:51 PM 48.9 °F - 24.1 °F 38% 29.83 in 10.0 mi WSW 16.1 mph 25.3 mph N/A   Clear
7:51 PM 48.0 °F - 24.1 °F 39% 29.84 in 10.0 mi WSW 21.9 mph 28.8 mph N/A   Clear
8:51 PM 48.0 °F - 21.9 °F 36% 29.83 in 10.0 mi West 20.7 mph 29.9 mph N/A   Clear
9:51 PM 46.9 °F - 21.9 °F 37% 29.83 in 10.0 mi WSW 13.8 mph - N/A   Clear
10:51 PM 46.0 °F 40.6 °F 23.0 °F 40% 29.81 in 10.0 mi WSW 11.5 mph - N/A   Clear
11:51 PM 46.9 °F - 21.9 °F 37% 29.78 in 10.0 mi West 12.7 mph - N/A   Clear